Starlink 31796

operational
NORAD ID: 59646 Int'l Des: 2024-082 Owner: SPXS Country: US Constellation: starlink
LEOCIRCULAR

About Starlink 31796

Description loading...

Live Position

Loading 3D Globe...

Upcoming Passes

Altitude History

Altitude vs Time

uPlot chart will show altitude changes over time

Two-Line Element Set

1 59646U 24082R 25352.09500217 .00001186 00000-0 52578-4 0 9994
2 59646 42.9983 240.5709 0000759 297.3115 62.7659 15.27591682 92498
Epoch: Dec 18, 2025 • Age: 12 hours

Current Status

Altitude 491.1 km
Velocity 7.62 km/s
Sub-Earth Point -31.38°S, 109.65°W
Launch Date May 3, 2024
Age 1.6 years
Type internet

Technical Details

Classification Payload
Mass 730.00 kg
Dry Mass 700.00 kg
Total Mass 730.00 kg
Length 0.30 m
Diameter 4.10 m
Span 29.00 m
Shape Box + pan
Manufacturer SPXS
Bus Type Starlink V2M
Phase Status In Orbit
Owner/State SPXS/US

Large Constellations

Loading constellations...